Terminal Aerodrome Forecast
Issued by NWS Pocatello, ID

Home | Current Version | Previous Version | Text Only | Print | Product List | Glossary On
Versions: 1 2 3 4 5 6 7 8 9 10 11 12 13 14 15 16
000
FTUS45 KPIH 290500
TAFPIH
TAF
KPIH 290520Z 2906/3006 20009KT P6SM SCT070
     FM291900 26012G20KT P6SM FEW070
     FM300200 19010KT P6SM BKN070=

USA.gov is the U.S. government's official web portal to all federal, state and local government web resources and services.